Location: Misciano
(43.5000°N, 11.9500°E)
Time: 17:47:53
(UTC+00:00)

BREEZE-M (TANK) - Pass Details

Date: 13 August 2020
Orbit: 299 x 17594 km, 49.4° (Epoch: 24 September)

Event Time Altitude Azimuth Distance (km) Brightness Sun altitude
Rises 18:17:48 0° 249° (WSW) 2,328 6.6 -0.8°
Reaches altitude 10° 18:19:05 10° 250° (WSW) 1,707 5.9 -1.0°
Maximum altitude 18:22:22 79° 338° (NNW) 874 3.7 -1.6°
Drops below altitude 10° 18:34:10 10° 66° (ENE) 5,779 7.3 -3.5°
Sets 18:43:14 0° 68° (ENE) 9,220 8.3 -5.0°
